Regional Weather Roundup
Issued by NWS

Home | Current Version | Previous Version | Text Only | Print | Product List | Glossary Off
Versions: 1 2 3 4 5 6 7 8 9 10 11 12 13 14 15 16 17 18 19 20 21 22 23 24 25 26 27 28 29

000
ASUS45 KCYS 251310
RWRWY

WYOMING REGIONAL WEATHER ROUNDUP
NATIONAL WEATHER SERVICE CHEYENNE WY
700 AM MDT SAT OCT 25 2014

NOTE:  "FAIR" INDICATES FEW OR NO CLOUDS BELOW 12,000 FEET
WITH NO SIGNIFICANT WEATHER AND/OR OBSTRUCTIONS TO VISIBILITY.

WYZ001-251400-
YELLOWSTONE NATIONAL PARK

CITY           SKY/WX    TMP DP  RH WIND       PRES   REMARKS
LK YELLOWSTONE   N/A     26  22  84 CALM      30.24
W YELLOWSTONE  NOT AVBL

$$
WYZ002>013-054>058-071-098>099-251400-
NORTHERN WYOMING

CITY           SKY/WX    TMP DP  RH WIND       PRES   REMARKS
JACKSON        CLEAR     27  25  93 N6        30.21S WCI  20
CODY           CLEAR     36  27  69 S7        30.09  WCI  30
GREYBULL       CLEAR     32  26  78 CALM      30.09S
WORLAND        CLEAR     31  28  89 NE3       30.08F
SHERIDAN       PTCLDY    28  24  85 CALM      30.08F
BUFFALO        PTCLDY    37  28  70 CALM      30.11S
GILLETTE       PTCLDY    40  32  73 S14       30.12F WCI  32
HULETT         FAIR      37  30  75 SW6       30.15  WCI  33
NEWCASTLE      FAIR      34  30  86 CALM      30.17

$$
WYZ014>020-022>026-101>103-251400-
CENTRAL WYOMING

CITY           SKY/WX    TMP DP  RH WIND       PRES   REMARKS
BIG PINEY      PTCLDY    22  16  78 NE3       30.27F
PINEDALE       MOSUNNY   23  21  93 W6        30.27  WCI  16
DUBOIS         FAIR      36  19  51 W5        30.21S WCI  32
LANDER         CLEAR     41  21  44 W5        30.15R
RIVERTON       PTCLDY    43  20  39 E3        30.17R
CASPER         CLEAR     47  26  44 SW12      30.18S
DOUGLAS        PTCLDY    34  22  61 CALM      30.18S

$$
WYZ021-027>030-104>119-251400-
SOUTHERN WYOMING

CITY           SKY/WX    TMP DP  RH WIND       PRES   REMARKS
EVANSTON       CLEAR     48  19  31 E6        30.24R
FORT BRIDGER   FAIR      47  18  32 S5        30.27S
ROCK SPRINGS   PTCLDY    40  26  57 E6        30.25S
DIXON          FAIR      32  27  81 SE7       30.32S WCI  26
RAWLINS        CLEAR     38  24  57 SE5       30.29S WCI  34
SARATOGA       FAIR      43  21  42 SE12      30.32S
LARAMIE        CLEAR     36  18  48 SE7       30.32S WCI  30
CHEYENNE       CLEAR     39  23  52 W12       30.26R WCI  32
TORRINGTON     CLEAR     39  31  72 CALM      30.17R
PINE BLUFFS    FAIR      34  28  80 CALM      30.22R

$$



USA.gov is the U.S. government's official web portal to all federal, state and local government web resources and services.